Peru, IN

3:33 PM EST on January 16, 2018 (GMT -0500)
Grissom Air Reserve Base

Weather History for KGUS - November, 2011

Change the Weather History Date:

Friday, November 18, 2011

  Actual Average Record
Temperature  
Mean Temperature 36 °F -  
Max Temperature 48 °F 46 °F 72 °F (2016)
Min Temperature 25 °F 32 °F 9 °F (2014)
Degree Days  
Heating Degree Days 28    
Moisture  
Dew Point 12 °F    
Average Humidity 40    
Maximum Humidity 88    
Minimum Humidity 14    
Precipitation  
Precipitation 0.00 in - - ()
Sea Level Pressure  
Sea Level Pressure 30.19 in    
Wind  
Wind Speed 14 mph (South)    
Max Wind Speed 24 mph    
Max Gust Speed 32 mph    
Visibility 10 miles    
Events      
Averages and records for this station are not official NWS values.
T = Trace of Precipitation, MM = Missing Value Source: NWS Daily Summary

Daily Weather History Graph

Daily Weather History Graph

Search for Another Location

Airport or City:

Trip Planner

Search our weather history database for the weather conditions in past years. The results will help you decide how hot, cold, wet, or windy it might be!

Date:

Astronomy

Nov. 18, 2011 Rise Set
Actual Time 7:34 AM EST 5:24 PM EST
Civil Twilight 7:04 AM EST 5:54 PM EST
Nautical Twilight 6:31 AM EST 6:27 PM EST
Astronomical Twilight 5:59 AM EST 6:59 PM EST
Moon No Moon Rise 1:12 PM EST (11/18)
Length of Visible Light 10h 49m
Length of Day
9h 50m
Waning Gibbous, 49% of the Moon is Illuminated
Nov 18
Waning Gibbous
Nov 25
New
Dec 2
First Quarter
Dec 10
Full
Dec 17
Last Quarter

Hourly Weather History & Observations

Time (EST) Temp. Windchill Dew Point Humidity Pressure Visibility Wind Dir Wind Speed Gust Speed Precip Events Conditions
12:55 AM 25.7 °F 17.1 °F 22.6 °F 88% 30.29 in 10.0 mi South 8.1 mph - N/A   Clear
1:55 AM 26.2 °F 17.1 °F 22.6 °F 86% 30.28 in 10.0 mi SSW 9.2 mph - N/A   Clear
2:55 AM 27.5 °F 18.6 °F 21.7 °F 79% 30.29 in 10.0 mi SSW 9.2 mph - N/A   Clear
3:55 AM 28.0 °F 19.3 °F 20.3 °F 73% 30.30 in 10.0 mi SSW 9.2 mph - N/A   Clear
4:55 AM 28.8 °F 19.5 °F 19.2 °F 68% 30.30 in 10.0 mi SSW 10.4 mph - N/A   Clear
5:55 AM 28.2 °F 19.5 °F 19.9 °F 71% 30.31 in 10.0 mi South 9.2 mph - N/A   Clear
6:55 AM 29.5 °F 18.8 °F 18.0 °F 62% 30.30 in 10.0 mi South 13.8 mph - N/A   Clear
7:55 AM 30.6 °F 19.8 °F 15.1 °F 53% 30.31 in 10.0 mi South 15.0 mph - N/A   Clear
8:55 AM 34.0 °F 23.8 °F 11.8 °F 40% 30.31 in 10.0 mi SSW 16.1 mph - N/A   Clear
9:55 AM 37.9 °F 28.9 °F 10.0 °F 32% 30.29 in 10.0 mi South 16.1 mph 25.3 mph N/A   Clear
10:38 AM 41.0 °F 32.5 °F 8.6 °F 26% 30.25 in 10.0 mi SSW 17.3 mph 25.3 mph N/A   Clear
10:55 AM 41.5 °F 33.5 °F 8.6 °F 26% 30.29 in 10.0 mi SSW 16.1 mph 27.6 mph N/A   Clear
11:55 AM 44.2 °F 35.7 °F 6.1 °F 21% 30.25 in 10.0 mi SSW 21.9 mph - N/A   Clear
12:55 PM 46.6 °F - 4.5 °F 18% 30.20 in 10.0 mi South 21.9 mph 27.6 mph N/A   Clear
1:55 PM 47.3 °F - 1.0 °F 15% 30.16 in 10.0 mi South 24.2 mph 32.2 mph N/A   Clear
2:55 PM 48.6 °F - 1.4 °F 14% 30.12 in 10.0 mi South 21.9 mph 29.9 mph N/A   Clear
3:55 PM 47.7 °F - 2.8 °F 16% 30.10 in 10.0 mi South 19.6 mph - N/A   Clear
4:55 PM 45.3 °F 37.8 °F 5.0 °F 19% 30.08 in 10.0 mi South 18.4 mph - N/A   Partly Cloudy
5:55 PM 42.4 °F 36.1 °F 8.2 °F 25% 30.07 in 10.0 mi South 11.5 mph - N/A   Clear
6:55 PM 39.9 °F 32.9 °F 14.4 °F 35% 30.06 in 10.0 mi South 11.5 mph - N/A   Clear
7:55 PM 42.1 °F 32.8 °F 10.9 °F 28% 30.04 in 10.0 mi South 21.9 mph 27.6 mph N/A   Scattered Clouds
8:55 PM 42.4 °F 33.3 °F 10.4 °F 27% 30.02 in 10.0 mi South 21.9 mph 28.8 mph N/A   Overcast
9:55 PM 43.0 °F 33.5 °F 9.9 °F 26% 30.02 in 10.0 mi South 24.2 mph 28.8 mph N/A   Overcast
10:55 PM 43.2 °F 34.5 °F 11.3 °F 27% 30.01 in 10.0 mi South 20.7 mph 28.8 mph N/A   Overcast
11:55 PM 42.4 °F 34.1 °F 12.2 °F 29% 30.02 in 10.0 mi South 18.4 mph 25.3 mph N/A   Mostly Cloudy